Regional Weather Roundup
Issued by NWS Green Bay, WI

Home | Current Version | Previous Version | Graphics & Text | Print | Product List | Glossary Off
Versions: 1 2 3 4 5 6 7 8 9 10 11 12 13 14 15 16 17 18 19 20 21 22 23 24 25 26 27 28 29 30 31 32 33 34 35 36 37 38 39 40 41 42 43 44 45 46 47 48 49 50

000
ASUS43 KGRB 282211
RWRGRB

NORTH-CENTRAL AND NORTHEAST WISCONSIN REGIONAL WEATHER ROUNDUP
NATIONAL WEATHER SERVICE GREEN BAY WI
500 PM CDT THU MAY 28 2015

WIZ005-009-010>012-018-019-282300-
NORTH CENTRAL WISCONSIN

CITY           SKY/WX    TMP DP  RH WIND       PRES   REMARKS
IRONWOOD       PTSUNNY   70  63  78 E5        29.97F
MANITOWISH WTR PTSUNNY   79  55  44 SW12      30.04F
ARBOR VITAE    MOSUNNY   78  55  44 S16G29    30.06S
EAGLE RIVER    MOSUNNY   79  45  30 SW9G16    30.06S
LAND O LAKES   PTSUNNY   79  50  35 SW5       30.06S
RHINELANDER    LGT RAIN  73  49  42 SW7       30.09R
PHILLIPS       MOSUNNY   80  51  36 S15       30.04S
ANTIGO         PTSUNNY   75  61  61 S8        30.09F
TOMAHAWK       MOSUNNY   79  57  46 S3        30.07F
MERRILL        MOSUNNY   82  57  42 SW9       30.07F
$$

WIZ013-073-282300-
NORTHEAST WISCONSIN

CITY           SKY/WX    TMP DP  RH WIND       PRES   REMARKS
IRON MOUNTAIN  PTSUNNY   72  60  66 SE9       30.07F
MARINETTE      MOSUNNY   73  61  64 S13       30.09S
OCONTO         MOSUNNY   79  63  58 S10       30.09S
$$

WIZ017-030-035>037-045-282300-
CENTRAL WISCONSIN

CITY           SKY/WX    TMP DP  RH WIND       PRES   REMARKS
MEDFORD        CLOUDY    76  58  51 S13       30.07S
WAUSAU         MOSUNNY   81  50  33 S15G23    30.05F
MOSINEE        MOSUNNY   81  54  39 SW15      30.08F
MARSHFIELD     MOSUNNY   81  55  40 S16G22    30.07F
WISC RAPIDS    MOSUNNY   81  53  37 SW15G22   30.09S
STEVENS POINT  MOSUNNY   78  55  44 S12       30.08F
WAUPACA        MOSUNNY   82  56  40 S13       30.09F
SHAWANO        PTSUNNY   84  55  36 SW9       30.08F
CLINTONVILLE   MOSUNNY   82  54  36 S13G21    30.08F
$$

WIZ038-039-048-051-282300-
FOX VALLEY

CITY           SKY/WX    TMP DP  RH WIND       PRES   REMARKS
NWS GREEN BAY  MOSUNNY   81  64  56 S15       30.10S
APPLETON       MOSUNNY   81  55  41 S12       30.11S
OSHKOSH        MOSUNNY   81  59  47 S10G21    30.10F
FOND DU LAC    PTSUNNY   82  59  45 S16       30.11S
$$

WIZ022-050-052-282300-
EAST CENTRAL WISCONSIN

CITY           SKY/WX    TMP DP  RH WIND       PRES   REMARKS
STURGEON BAY   MOSUNNY   72  57  60 S17       30.14S
MANITOWOC      MOSUNNY   72  57  59 S17       30.13F
SHEBOYGAN      MOSUNNY   75  56  51 S18       30.13F
$$

LMZ563-521-522-541>543-282300-
LAKESHORE

STATION/POSITION TIME  TEMP    WIND        PRES    VSBY  WAVE
                       AIR SEA DIR/SP/G                  HT/PER
                 (UTC) (F)     (DEG/KT/KT) (MB)    (MI)  (FT/S)
SHEBOYGAN LKSHOR 2200   61     180/ 24/ 25 1020.6F
KEWAUNEE LKSHORE 2100   50     180/ 13/ 15 1019.8F
TWO RIVERS CG    2055   53                 1021.2      6   2
NORTHPORT PIER   2100   51     150/ 12/ 15 1020.0F
N MID LAKE BUOY  2150   40 37  140/  6/  6 1020.9F         1
SISTER BAY LKSHO 2118   71     180/ 19/ 23   N/A
STURGEON BAY CG  2105   48     140/  7     1022.2      6   2
CHAMBERS ISLAND  2100          140/  7/ 10 1019.6F
MENOMINEE LKSHOR 2100   59      20/  2/  3 1019.8F
$$



USA.gov is the U.S. government's official web portal to all federal, state and local government web resources and services.